Flag for Hungary Weather past 2 weeks in Miskolc, Hungary

Now
71 °F

Partly sunny.


Feels Like: 75 °F
Forecast: 60 / 70 °F
Wind: 2 mph from South

Location: Miskolc

Current Time: Jul 28, 2015 at 11:14:21 AM

Latest Report: Jul 28, 2015 at 10:00 AM


Visibility: 25 mi

Pressure: 29.83 "Hg

Humidity: 63%

Dew point: 58 °F

Location of MiskolcLocation

Historic Weather in Miskolc — Graph

°F

Miskolc temperature yesterday

Maximum temperature yesterday: 77 °F (at 3:00 PM)
Minimum temperature yesterday: 59 °F (at 4:00 AM)
Average temperature yesterday: 66 °F

Past Weeks' High & Low Weather Summary

 TemperatureHumidityPressure
High98 °F (Jul 23, 3:00 PM)85% (Jul 26, 2:00 AM)30.12 "Hg (Jul 26, 2:00 AM)
Low58 °F (Jul 28, 1:00 AM)21% (Jul 16, 4:00 PM)29.66 "Hg (Jul 25, 6:00 PM)
Average76 °F57%29.92 "Hg
* Reported Jul 13 9:00 AM — Jul 28 9:00 AM, Miskolc, Weather by CustomWeather, © 2015

Note: Actual official high and low records may vary slightly from our data, if they occured in-between our weather recording intervals... More about our weather records

Advertising

Miskolc weather history for previous 24 hours

 ConditionsComfort  
Time TempWeatherWind HumidityBarometerVisibility
9:00 AM
Tue, Jul 28
68 °FPartly sunny.2 mph69%29.82 "Hg25 mi
8:00 AM66 °FPassing clouds.2 mph73%29.81 "Hg25 mi
7:00 AM63 °FPassing clouds.2 mph76%29.80 "Hg22 mi
6:00 AM61 °FPassing clouds.1 mph77%29.80 "Hg22 mi
5:00 AM62 °FPassing clouds.2 mph75%29.77 "Hg19 mi
4:00 AM64 °FClear.2 mph73%29.78 "Hg16 mi
3:00 AM61 °FClear.1 mph80%29.78 "Hg16 mi
2:00 AM58 °FCool.1 mph82%29.77 "HgN/A
1:00 AM58 °FPassing clouds.1 mph82%29.78 "Hg16 mi
12:00 AM59 °FPassing clouds.1 mph83%29.79 "Hg16 mi
11:00 PM
Mon, Jul 27
60 °FPassing clouds.1 mph81%29.77 "Hg19 mi
10:00 PM62 °FPassing clouds.No wind79%29.77 "Hg19 mi
9:00 PM63 °FPassing clouds.No wind78%29.77 "Hg19 mi
8:00 PM64 °FPartly sunny.No wind76%29.74 "Hg22 mi
7:00 PM64 °FOvercast.1 mph76%29.74 "Hg22 mi
6:00 PM67 °FLight rain. Overcast.1 mph70%29.74 "Hg22 mi
5:00 PM67 °FLight rain. Overcast.1 mph64%29.74 "Hg22 mi
4:00 PM74 °FLight rain. Overcast.1 mph43%29.73 "Hg25 mi
3:00 PM77 °FOvercast.2 mph37%29.73 "Hg25 mi
2:00 PM76 °FOvercast.3 mph40%29.74 "Hg25 mi
1:00 PM75 °FOvercast.2 mph44%29.75 "Hg25 mi
12:00 PM73 °FOvercast.2 mph56%29.77 "Hg25 mi
11:00 AM68 °FOvercast.1 mph62%29.78 "Hg25 mi
Weather by CustomWeather, © 2015

See weather overviewHow to use our weather pages